This is the latest recevied weather packets stored in our database for station/object KG5MMT-15. If no packets are shown the sender has not sent any weather packets the latest 10 day(s).
| Time | Temp. | Humidity | Pressure | Rain* | Wind** | Luminosity | Snow |
|---|---|---|---|---|---|---|---|
| 1778170032 | 12.22° C | 29% | 0 hPa | 0 mm | - | - | - |
| 1778169732 | 12.78° C | 31% | 0 hPa | 0 mm | - | - | - |
| 1778169432 | 12.22° C | 31% | 0 hPa | 0 mm | - | - | - |
| 1778169132 | 11.67° C | 37% | 0 hPa | 0 mm | - | - | - |
| 1778168832 | 11.11° C | 39% | 0 hPa | 0 mm | - | - | - |
| 1778168532 | 11.11° C | 40% | 0 hPa | 0 mm | - | - | - |
| 1778168232 | 10.56° C | 37% | 0 hPa | 0 mm | - | - | - |
| 1778167932 | 10.56° C | 45% | 0 hPa | 0 mm | - | - | - |
| 1778167632 | 10° C | 45% | 0 hPa | 0 mm | - | - | - |
| 1778167332 | 10° C | 46% | 0 hPa | 0 mm | - | - | - |
| 1778167032 | 10° C | 46% | 0 hPa | 0 mm | - | - | - |
| 1778166732 | 10° C | 49% | 0 hPa | 0 mm | - | - | - |
| 1778166432 | 9.44° C | 47% | 0 hPa | 0 mm | - | - | - |
| 1778166132 | 9.44° C | 49% | 0 hPa | 0 mm | - | - | - |
| 1778165832 | 9.44° C | 49% | 0 hPa | 0 mm | - | - | - |
| 1778165532 | 9.44° C | 48% | 0 hPa | 0 mm | - | - | - |
| 1778165232 | 9.44° C | 47% | 0 hPa | 0 mm | - | - | - |
| 1778164933 | 9.44° C | 49% | 0 hPa | 0 mm | - | - | - |
| 1778164633 | 9.44° C | 51% | 0 hPa | 0 mm | - | - | - |
| 1778164333 | 9.44° C | 50% | 0 hPa | 0 mm | - | - | - |
| 1778164033 | 8.89° C | 53% | 0 hPa | 0 mm | - | - | - |
| 1778163733 | 8.89° C | 53% | 0 hPa | 0 mm | - | - | - |
| 1778163433 | 8.89° C | 47% | 0 hPa | 0 mm | - | - | - |
| 1778163132 | 8.89° C | 48% | 0 hPa | 0 mm | - | - | - |
| 1778162832 | 7.78° C | 52% | 0 hPa | 0 mm | - | - | - |
* Rain latest hour (hover to see other rain measurements)
** Current wind speed in m/s (hover to see current wind gust speed)